Location: Altenhof
(50.2418°N, 10.8789°E)
Time: 08:12:35
(UTC+00:00)

SL-16 R/B - Pass Details

Date: 18 February 2020
Orbit: 843 x 847 km, 71.0° (Epoch: 30 March)

Event Time Altitude Azimuth Distance (km) Brightness Sun altitude
Exits shadow 04:28:42 33° 252° (WSW) 1,389 2.8 -18.9°
Maximum altitude 04:30:52 50° 306° (NW) 1,072 2.4 -18.6°
Drops below altitude 10° 04:36:24 10° 22° (NNE) 2,477 4.9 -17.7°
Sets 04:38:57 0° 28° (NNE) 3,415 5.8 -17.3°
